Temperature
5 6 6 7 7 8 8 8 8 9 10 12 12 12 12 13 14 14 15 16 17 17 17 17 16 16 16 15 15 14 13 12 12 11 11 10 10 10 9 9 9 9 9 8
5 6 7 7 8 8 9 9 9 9 9 11 12 12 12 13 13 13 15 16 17 17 17 17 16 16 16 15 15 14 13 12 12 11 10 10 10 9 9 9 9 8 8 8
4 5 6 6 8 9 9 10 10 10 11 10 11 11 12 13 14 15 16 17 17 17 17 17 17 16 16 15 14 13 13 12 11 11 10 10 9 9 9 8 8 8 8 8
4 4 5 7 9 9 9 10 10 10 10 11 11 12 15 15 16 16 16 16 17 17 17 17 16 16 15 14 14 13 12 11 11 10 10 9 9 9 8 8 8 8 7 7
3 4 5 7 7 8 9 9 10 10 10 10 12 12 13 15 16 16 17 17 17 17 17 17 16 15 15 14 13 13 12 11 11 10 10 9 9 9 8 8 7 7 7 7
3 4 6 7 7 8 9 9 9 10 10 10 9 10 12 15 15 16 16 16 16 16 16 16 16 15 14 14 13 13 12 12 11 10 10 9 9 8 8 7 7 7 7 6
3 4 5 7 7 8 8 8 9 9 10 10 9 12 13 14 15 15 16 16 16 16 16 16 15 15 14 14 13 13 12 11 11 10 9 9 8 8 7 7 7 6 6 6
3 4 5 6 6 8 8 9 10 10 10 10 11 12 13 13 14 15 15 15 15 15 15 15 15 15 14 14 13 12 12 11 10 9 9 8 8 7 7 6 6 6 6 5
4 5 6 6 7 9 9 9 10 10 10 10 10 11 12 13 13 14 15 15 15 15 15 15 15 14 14 14 13 12 11 11 10 9 8 8 7 7 6 6 6 5 5 5
3 4 5 6 7 8 9 9 10 10 10 10 10 11 11 12 12 13 14 14 14 14 14 14 14 14 14 13 12 12 11 10 9 9 8 7 7 6 6 6 5 5 5 4
3 4 5 6 7 8 8 9 9 10 10 10 10 10 11 11 12 13 13 13 14 14 14 14 14 13 13 12 12 11 10 10 9 8 7 7 6 6 5 5 5 5 4 4
3 4 4 5 7 7 8 8 9 9 9 10 10 11 11 11 12 12 13 13 13 13 13 13 13 13 12 12 11 11 10 9 8 8 7 7 6 5 5 5 4 4 3 3
5 5 6 7 7 7 7 8 8 9 9 10 10 11 11 11 12 12 12 12 13 13 13 13 12 12 11 11 10 10 10 9 8 7 7 6 6 5 5 4 3 3 2 2
5 5 5 6 7 7 7 8 8 8 9 10 10 10 11 11 11 11 12 12 12 12 12 12 12 11 10 10 10 9 9 8 8 7 6 6 5 5 4 4 3 2 2 1
4 5 5 6 6 7 7 7 7 8 9 9 10 10 10 10 10 10 11 11 11 11 11 11 11 10 10 9 9 8 8 8 7 6 6 5 5 4 3 3 2 2 1 1
4 5 5 5 6 6 7 7 7 8 8 9 9 9 10 10 10 10 10 10 10 10 10 10 10 10 9 9 8 8 7 7 6 6 5 5 4 3 3 2 2 1 1 0
3 3 4 4 5 6 6 7 8 8 8 9 9 9 9 9 9 9 9 9 10 10 10 10 9 9 8 8 7 7 7 6 5 5 4 4 3 3 2 2 1 1 0 -0
3 4 4 5 5 6 6 7 8 8 8 9 9 9 9 9 9 8 8 8 8 8 8 9 8 8 7 7 7 6 6 5 5 4 4 3 3 2 2 1 0 -0 -1 -1
3 4 4 5 6 6 6 7 8 8 8 9 9 8 8 8 9 8 8 8 8 8 7 7 7 7 7 6 6 6 5 5 4 3 3 2 2 1 1 0 -0 -1 -1 -2
3 4 5 5 5 6 6 7 7 8 8 8 8 8 7 7 8 8 7 7 7 8 7 6 6 6 6 5 5 5 4 4 3 3 2 2 1 1 -0 -1 -1 -1 -2 -2
3 4 5 5 5 6 6 7 7 7 7 7 8 8 7 7 7 7 7 6 6 6 6 6 5 5 5 5 4 4 3 3 2 2 1 1 0 -0 -1 -1 -2 -2 -3 -3
3 3 4 4 5 5 5 6 7 7 7 6 7 7 7 6 6 6 6 6 5 5 5 5 5 4 4 4 3 3 3 2 1 1 1 0 -0 -1 -1 -2 -2 -3 -3 -4
2 3 3 4 4 5 5 5 5 6 6 6 6 6 6 6 5 6 5 4 4 4 4 4 4 3 3 3 2 2 2 1 1 0 -0 -1 -1 -2 -2 -3 -3 -4 -4 -4
1 2 3 3 4 4 4 4 4 4 4 5 5 5 5 5 4 4 4 3 3 3 3 3 2 2 2 2 1 1 0 0 -0 -1 -1 -2 -2 -3 -3 -4 -4 -4 -5 -5
0 1 2 2 2 2 3 3 3 3 3 3 2 2 3 4 4 3 2 2 2 2 2 1 1 1 1 1 0 -0 -1 -1 -1 -2 -2 -3 -3 -4 -4 -4 -5 -5 -5 -5
-1 -1 -0 1 1 1 2 2 2 1 1 1 1 1 1 1 1 1 1 1 1 1 1 0 -0 -0 -0 -1 -1 -1 -2 -2 -3 -3 -3 -3 -4 -4 -4 -5 -5 -5 -6 -6
-3 -2 -1 -1 -1 -1 -0 0 1 0 0 1 0 -1 -1 -0 -0 -0 -0 -0 -0 -0 -0 -1 -1 -1 -2 -2 -2 -2 -3 -3 -3 -4 -4 -4 -5 -5 -5 -5 -6 -6 -6 -6
Wind_Speed
10 9 9 11 14 14 15 13 13 14 14 12 9 9 8 6 6 6 6 7 8 8 8 7 7 8 8 8 9 10 11 12 11 10 10 10 11 11 11 11 11 10 10 9
9 9 10 12 16 19 21 20 18 14 17 12 9 6 6 7 7 8 9 10 9 9 9 9 10 9 9 9 9 10 11 11 10 10 10 10 11 11 11 10 9 9 9 10
7 5 5 12 18 21 20 20 21 23 19 7 9 12 12 11 10 11 11 10 10 11 11 10 10 10 11 10 9 10 10 10 10 11 11 11 11 11 11 10 9 9 9 9
4 4 11 11 9 14 19 21 20 17 11 13 13 12 11 10 11 12 10 9 9 9 9 8 8 8 9 10 10 10 10 10 10 11 11 10 11 11 10 9 9 8 8 8
5 7 9 9 7 12 16 19 18 19 15 11 8 6 9 11 11 13 12 10 10 9 8 8 9 10 11 11 11 11 11 11 11 12 12 11 11 10 8 8 7 7 7 8
6 6 9 9 5 5 8 14 11 14 15 11 8 11 15 9 10 11 9 7 7 7 7 8 9 11 12 12 12 12 12 11 11 11 12 12 11 9 7 7 7 7 6 6
10 7 9 7 2 6 9 10 6 11 14 12 15 17 10 8 9 10 9 8 8 8 8 9 11 12 12 12 12 10 10 10 10 10 10 10 9 7 8 8 8 7 6 4
8 8 10 3 4 8 7 5 5 8 11 12 14 13 8 8 10 9 9 8 9 9 7 7 11 13 12 11 9 10 11 11 10 9 9 9 10 8 8 9 8 7 6 4
8 10 7 5 7 8 4 5 6 6 8 10 11 12 10 10 10 9 10 10 9 10 9 7 9 12 13 10 11 12 12 11 10 10 8 9 10 10 8 7 7 6 5 5
7 11 10 11 11 10 8 8 8 8 7 7 9 10 10 9 9 9 9 10 9 10 10 9 8 9 10 12 13 14 13 11 10 10 9 8 7 8 8 7 7 6 5 5
10 11 10 11 10 10 11 11 10 8 7 7 8 9 9 9 9 9 8 8 10 11 12 11 10 10 11 13 15 14 13 11 10 9 10 8 6 5 6 5 7 7 6 6
12 10 9 14 14 12 12 13 12 9 9 8 7 8 7 8 7 8 9 10 10 10 11 11 11 11 11 13 15 16 13 11 9 9 8 8 8 6 7 6 8 8 8 7
16 15 14 17 16 14 14 14 13 11 10 9 7 6 7 6 6 7 9 11 12 13 13 13 13 12 11 12 14 15 14 12 9 9 9 9 8 8 7 6 8 8 8 7
15 14 16 17 16 14 13 12 10 9 7 6 5 4 5 5 6 9 10 11 11 13 13 13 13 12 11 12 13 13 13 12 11 9 9 8 8 7 7 7 5 3 4 5
16 16 17 15 13 12 10 7 6 7 4 3 3 6 7 9 9 9 9 11 13 13 12 13 13 12 11 12 14 14 12 10 9 8 8 8 7 7 6 6 5 4 3 2
12 12 12 12 12 11 9 7 7 7 4 3 4 5 6 8 9 10 10 12 15 14 13 13 13 11 12 13 14 11 10 14 12 9 8 8 7 7 6 6 5 4 3 2
12 13 12 11 11 10 9 8 8 7 5 5 6 8 10 12 12 11 9 9 10 11 11 13 13 12 12 13 13 11 10 11 13 10 8 7 7 6 6 5 5 4 3 3
15 15 14 13 12 11 9 7 6 6 6 5 8 10 11 13 13 12 12 13 13 11 9 10 12 13 12 12 11 10 10 9 8 8 7 7 6 6 5 5 5 4 2 2
12 13 13 13 11 10 8 7 6 5 6 9 10 10 10 10 12 13 13 14 14 12 7 10 17 13 12 12 13 10 10 10 8 7 7 8 7 5 5 4 4 3 3 2
10 9 9 8 7 6 6 5 5 6 7 10 11 11 11 11 12 13 13 10 6 8 11 13 13 12 11 12 13 9 10 10 9 8 7 6 6 5 4 4 4 3 3 2
6 5 4 4 3 3 5 6 8 9 9 10 12 13 13 12 11 11 12 10 6 10 13 16 11 10 9 11 13 9 9 9 8 7 7 6 5 5 4 4 3 3 2 2
4 2 2 3 5 4 4 6 9 11 11 10 11 13 14 13 12 10 9 8 10 14 11 9 9 12 14 13 9 9 8 8 7 6 6 5 5 4 4 3 3 2 2 2
3 1 3 4 7 8 8 8 9 10 11 11 12 13 13 11 10 11 10 7 9 14 11 9 14 18 17 11 8 8 8 8 7 6 5 5 4 4 4 3 3 2 2 2
3 4 5 7 9 11 11 9 10 10 11 11 10 10 12 12 9 7 9 15 16 16 11 14 19 18 15 9 8 8 7 6 6 5 5 4 3 3 3 2 2 2 3 3
4 5 7 9 9 8 10 12 13 13 13 11 12 11 8 8 9 11 11 13 17 16 12 14 18 16 10 8 8 7 6 5 5 5 4 4 3 3 2 2 2 3 3 3
5 6 6 7 7 8 8 9 10 10 11 11 10 9 10 10 12 12 11 12 14 15 11 9 9 10 8 8 7 7 6 5 5 4 4 3 3 2 2 2 3 3 3 4
7 7 8 9 8 7 7 8 10 10 10 11 12 10 11 11 11 11 12 11 10 10 9 8 7 7 7 7 6 5 5 4 3 3 2 2 2 2 2 3 3 3 3 4
Wind_Direction
256 257 240 241 226 216 214 215 218 229 229 231 221 226 233 232 218 205 207 203 200 198 194 186 181 179 175 172 168 167 170 176 181 175 169 165 165 166 165 167 171 171 170 171
258 248 237 246 228 219 222 222 227 234 241 233 222 218 227 221 204 210 216 213 206 200 193 191 188 182 175 172 169 167 171 175 168 162 161 162 163 161 161 163 164 163 169 171
243 260 267 242 217 212 218 221 218 229 234 213 207 215 222 224 217 216 218 213 207 203 200 196 189 179 176 170 161 164 167 165 162 162 163 163 160 159 163 165 161 165 170 171
235 215 229 238 206 209 222 229 224 231 225 213 217 221 223 213 213 224 222 215 213 205 199 190 175 167 157 154 160 164 164 163 162 161 160 158 158 162 163 161 164 169 170 172
216 220 254 272 227 204 213 236 228 230 231 225 219 221 244 223 212 218 216 211 209 200 186 170 168 161 152 156 161 165 169 168 166 162 159 158 161 162 158 156 159 162 164 164
216 220 231 243 234 216 200 244 237 226 229 218 175 218 238 220 212 220 214 202 191 176 164 165 167 156 155 162 167 176 175 168 162 160 160 162 162 155 149 151 153 150 148 159
222 233 255 263 237 141 187 241 255 225 227 210 205 225 237 201 209 215 204 194 178 166 172 175 161 156 161 166 178 173 156 149 151 154 155 152 146 143 142 139 137 138 139 142
210 227 245 245 145 182 233 276 273 244 232 223 229 235 226 206 207 202 192 186 174 167 172 162 158 158 163 174 164 144 142 144 146 144 142 140 137 136 138 139 138 139 136 130
211 231 268 243 242 250 264 272 271 263 259 238 237 235 226 220 210 199 190 181 175 168 160 158 164 163 165 162 145 141 139 141 140 135 134 139 141 140 138 139 142 147 147 150
241 257 267 270 276 284 281 277 280 275 269 246 243 237 226 218 210 202 189 176 166 157 158 164 164 159 153 145 143 139 139 139 139 138 134 132 135 142 144 149 148 150 155 158
252 268 284 273 267 278 289 293 291 289 275 250 240 239 223 215 206 197 185 169 163 164 164 162 153 146 143 144 141 136 136 137 136 136 137 131 124 132 143 156 163 162 168 165
251 253 255 270 275 277 280 282 280 282 286 277 248 236 225 214 205 187 174 162 158 156 152 150 145 143 145 146 142 138 138 139 139 138 135 131 124 104 95 119 134 140 148 153
254 264 263 270 274 271 270 272 274 271 263 263 255 223 208 206 190 171 162 159 159 155 149 144 142 143 145 145 142 141 143 142 140 139 139 138 136 133 122 96 102 116 129 137
257 261 265 266 269 270 271 275 278 282 272 247 229 197 174 163 156 158 160 157 146 139 138 139 138 141 143 139 134 133 134 137 139 140 141 141 140 139 139 139 132 104 105 121
257 251 256 263 266 270 271 270 269 272 268 244 184 165 156 153 153 148 139 133 129 129 134 136 135 137 137 133 131 132 132 134 133 132 131 132 132 131 131 133 134 131 112 110
264 261 257 256 257 258 258 252 249 249 234 208 166 150 143 135 129 126 129 136 138 141 142 137 136 137 135 131 127 125 127 132 132 131 130 130 131 132 133 135 136 139 148 153
260 259 255 257 256 253 246 242 236 230 211 184 160 140 130 123 121 122 121 119 120 124 130 133 133 131 131 130 128 128 128 132 130 127 130 134 135 137 139 141 145 151 167 186
250 252 251 250 248 249 250 246 233 210 190 169 143 137 139 139 141 137 129 118 109 101 104 120 126 126 125 125 125 127 128 129 130 130 130 132 133 135 138 142 151 157 167 192
252 251 251 247 241 238 238 231 214 187 159 147 141 142 140 138 136 132 128 126 127 126 127 128 129 124 123 127 124 123 125 125 123 124 127 135 130 131 137 144 153 162 173 190
259 250 243 238 230 226 215 197 166 152 146 140 133 129 128 130 130 128 123 117 123 131 134 131 125 121 122 126 122 122 125 127 128 129 128 130 135 139 142 149 156 169 186 202
277 258 225 206 201 192 182 168 152 144 140 137 137 138 134 129 126 126 125 118 112 121 127 127 124 124 124 127 120 121 123 125 128 132 134 136 139 143 149 157 167 181 196 212
305 271 193 159 146 132 127 133 134 132 129 126 126 127 125 124 120 107 97 118 130 129 124 122 122 126 130 123 117 119 121 123 126 129 134 139 145 152 161 168 180 196 207 216
333 27 116 121 124 117 104 106 116 123 126 129 131 131 129 127 128 127 120 120 126 123 118 120 127 126 121 113 114 117 120 123 128 133 137 142 148 157 167 178 190 202 215 227
21 67 93 100 103 103 102 98 99 101 102 101 105 113 119 117 101 88 110 125 125 117 113 122 124 121 115 111 112 115 118 121 125 129 132 136 143 154 169 185 204 219 227 236
54 78 93 102 103 105 106 104 99 96 96 94 90 87 89 98 110 115 114 118 119 113 110 116 116 113 108 109 111 114 116 123 129 132 136 142 151 163 182 201 217 230 240 248
63 81 88 90 98 108 113 112 111 110 109 106 98 92 92 96 102 107 108 107 107 108 107 107 107 104 103 106 108 111 114 118 115 119 135 146 160 179 203 220 232 241 249 255
65 77 84 84 83 92 101 106 110 111 112 115 111 104 103 104 105 106 106 107 106 103 101 100 99 100 103 105 107 108 111 114 120 129 142 158 181 203 219 231 243 248 253 258
Height
1374 1370 1371 1369 1369 1372 1374 1373 1377 1370 1367 1359 1358 1359 1359 1359 1361 1364 1366 1369 1372 1375 1379 1382 1386 1389 1392 1395 1399 1402 1406 1410 1415 1420 1425 1430 1434 1439 1444 1448 1453 1457 1460 1464
1372 1366 1365 1363 1361 1363 1363 1363 1364 1364 1359 1351 1353 1355 1357 1357 1359 1361 1363 1365 1369 1372 1376 1379 1382 1386 1389 1392 1396 1399 1403 1407 1412 1416 1421 1425 1430 1435 1440 1444 1448 1452 1455 1459
1370 1365 1361 1359 1349 1350 1351 1348 1350 1350 1344 1348 1350 1351 1351 1353 1355 1356 1359 1362 1365 1368 1372 1375 1379 1382 1386 1389 1393 1396 1400 1404 1408 1413 1417 1422 1426 1431 1435 1440 1444 1447 1451 1454
1368 1366 1363 1343 1335 1337 1339 1337 1338 1338 1338 1341 1342 1344 1346 1349 1351 1352 1355 1358 1361 1365 1368 1372 1376 1379 1383 1386 1390 1393 1397 1401 1405 1409 1414 1418 1423 1427 1431 1436 1440 1443 1446 1450
1366 1360 1350 1337 1332 1331 1334 1330 1329 1331 1333 1336 1338 1342 1341 1342 1345 1348 1351 1354 1358 1361 1365 1369 1372 1376 1379 1383 1387 1390 1394 1398 1402 1406 1410 1414 1419 1423 1427 1432 1436 1439 1442 1445
1361 1355 1343 1327 1324 1323 1329 1328 1321 1324 1326 1331 1336 1341 1332 1335 1340 1343 1347 1350 1354 1357 1361 1365 1369 1372 1376 1379 1383 1386 1390 1395 1399 1403 1407 1411 1416 1420 1424 1428 1432 1436 1438 1441
1354 1348 1334 1322 1320 1320 1332 1322 1316 1317 1319 1323 1326 1324 1325 1330 1334 1337 1341 1345 1349 1353 1356 1360 1364 1368 1372 1375 1379 1384 1388 1392 1396 1401 1405 1409 1413 1417 1421 1425 1428 1431 1435 1437
1348 1344 1333 1318 1319 1320 1316 1312 1311 1310 1311 1314 1315 1317 1321 1324 1327 1330 1334 1339 1343 1347 1351 1355 1359 1363 1367 1371 1376 1381 1385 1389 1393 1398 1402 1406 1410 1414 1418 1422 1425 1428 1430 1433
1334 1327 1317 1314 1313 1311 1311 1310 1308 1307 1307 1309 1310 1311 1314 1317 1320 1323 1328 1332 1337 1342 1346 1350 1355 1359 1363 1368 1373 1377 1382 1386 1391 1395 1400 1404 1407 1411 1415 1418 1421 1424 1426 1428
1327 1318 1314 1311 1309 1308 1308 1307 1306 1305 1305 1304 1304 1304 1307 1310 1313 1316 1320 1326 1331 1336 1340 1345 1350 1355 1360 1365 1369 1374 1379 1383 1388 1392 1397 1401 1405 1408 1411 1414 1417 1420 1422 1424
1320 1314 1311 1305 1305 1305 1305 1304 1302 1301 1300 1299 1299 1299 1300 1302 1305 1309 1313 1319 1325 1330 1335 1340 1345 1351 1356 1361 1366 1371 1376 1381 1385 1390 1394 1398 1402 1406 1409 1412 1415 1417 1419 1421
1313 1308 1309 1303 1301 1302 1301 1299 1298 1296 1294 1293 1294 1293 1294 1296 1299 1303 1308 1313 1319 1325 1330 1336 1342 1347 1353 1358 1363 1367 1372 1378 1382 1387 1392 1396 1399 1403 1406 1410 1412 1414 1416 1418
1305 1302 1302 1298 1297 1296 1295 1294 1293 1292 1290 1288 1288 1289 1290 1291 1294 1298 1303 1308 1314 1320 1327 1333 1338 1344 1349 1355 1360 1365 1370 1375 1380 1385 1389 1393 1396 1399 1403 1406 1409 1411 1413 1414
1299 1298 1295 1291 1290 1289 1289 1287 1286 1285 1284 1284 1284 1284 1286 1287 1290 1294 1299 1305 1311 1318 1324 1330 1336 1342 1347 1353 1358 1364 1369 1374 1378 1383 1387 1391 1394 1397 1400 1403 1405 1407 1410 1411
1290 1290 1287 1284 1284 1283 1283 1282 1281 1280 1279 1280 1280 1281 1283 1285 1288 1292 1298 1304 1310 1316 1322 1328 1334 1340 1346 1352 1357 1362 1367 1372 1377 1381 1385 1389 1392 1395 1398 1401 1403 1405 1407 1408
1280 1280 1280 1279 1277 1277 1277 1277 1276 1275 1276 1276 1278 1279 1281 1284 1288 1292 1297 1303 1309 1314 1320 1326 1332 1339 1345 1351 1356 1361 1367 1371 1375 1379 1383 1387 1390 1393 1396 1398 1400 1402 1403 1405
1275 1272 1272 1271 1271 1271 1271 1271 1271 1271 1272 1274 1275 1278 1281 1284 1288 1293 1298 1304 1310 1315 1321 1327 1333 1339 1345 1350 1355 1360 1365 1370 1374 1378 1382 1385 1388 1391 1393 1396 1397 1399 1400 1401
1266 1265 1265 1265 1264 1264 1265 1267 1267 1268 1270 1272 1274 1277 1280 1284 1288 1293 1298 1304 1310 1316 1322 1328 1334 1339 1345 1350 1355 1360 1364 1368 1372 1376 1380 1383 1386 1389 1391 1393 1394 1396 1397 1398
1258 1258 1258 1258 1259 1260 1260 1261 1263 1265 1268 1270 1273 1276 1280 1285 1289 1294 1299 1304 1310 1316 1323 1329 1335 1340 1345 1350 1355 1359 1363 1367 1371 1375 1378 1381 1384 1386 1388 1389 1391 1392 1393 1394
1251 1251 1251 1252 1253 1255 1256 1257 1260 1262 1266 1269 1273 1276 1281 1286 1290 1295 1300 1306 1311 1317 1323 1329 1335 1340 1345 1350 1355 1359 1363 1366 1370 1373 1376 1379 1381 1383 1385 1386 1388 1389 1390 1390
1245 1245 1246 1247 1249 1250 1252 1255 1257 1261 1265 1269 1272 1276 1280 1285 1291 1296 1301 1306 1313 1319 1324 1330 1335 1340 1345 1349 1354 1358 1361 1365 1368 1371 1374 1376 1378 1380 1381 1383 1384 1385 1386 1386
1241 1241 1242 1244 1246 1248 1250 1253 1256 1260 1264 1269 1273 1277 1281 1286 1291 1297 1302 1307 1313 1319 1325 1330 1336 1340 1345 1349 1353 1357 1360 1363 1366 1369 1371 1373 1375 1377 1378 1379 1380 1381 1381 1382
1240 1240 1241 1242 1244 1246 1250 1253 1256 1260 1264 1269 1273 1277 1281 1286 1292 1296 1302 1309 1314 1320 1325 1331 1336 1340 1344 1348 1352 1356 1359 1361 1364 1366 1369 1370 1372 1374 1375 1376 1376 1377 1377 1377
1239 1239 1241 1243 1244 1246 1249 1253 1257 1261 1265 1270 1274 1279 1283 1288 1293 1299 1304 1310 1315 1321 1326 1331 1335 1340 1344 1348 1351 1354 1357 1360 1362 1364 1366 1368 1369 1370 1371 1372 1372 1373 1373 1373
1240 1240 1242 1244 1246 1249 1252 1255 1259 1263 1267 1271 1277 1282 1286 1291 1294 1300 1306 1311 1317 1322 1326 1331 1336 1340 1344 1347 1350 1353 1356 1358 1360 1362 1363 1365 1366 1367 1368 1368 1369 1369 1368 1368
1242 1243 1244 1246 1249 1252 1254 1257 1260 1265 1269 1273 1278 1283 1288 1293 1298 1302 1308 1313 1318 1323 1327 1331 1336 1340 1343 1346 1349 1352 1354 1356 1358 1359 1361 1362 1363 1364 1364 1364 1364 1364 1364 1363
1245 1245 1247 1249 1252 1255 1258 1260 1263 1267 1272 1276 1280 1286 1290 1295 1300 1305 1309 1314 1319 1324 1328 1332 1336 1340 1343 1346 1348 1351 1353 1355 1356 1357 1358 1359 1359 1360 1360 1360 1360 1359 1359 1358